"Period start","avg(HW err(1)/warn(2) (#))","avg(Visibility (m))","avg(Weather code (#))","avg(Precip intensity (mm/h))","min(HW err(1)/warn(2) (#))","max(HW err(1)/warn(2) (#))","std(HW err(1)/warn(2) (#))","med(HW err(1)/warn(2) (#))","min(Visibility (m))","max(Visibility (m))","std(Visibility (m))","med(Visibility (m))","min(Weather code (#))","max(Weather code (#))","std(Weather code (#))","med(Weather code (#))","min(Precip intensity (mm/h))","max(Precip intensity (mm/h))","std(Precip intensity (mm/h))","med(Precip intensity (mm/h))"
2013-11-20 00:00:00,2,49748,0,0.00,2,2,0,2,48037,50000,580,50000,0,0,0,0,0.00,0.00,0.00,0.00
2013-11-20 00:10:00,2,48605,0,0.00,2,2,0,2,42622,50000,2451,49876,0,0,0,0,0.00,0.00,0.00,0.00
2013-11-20 00:20:00,2,48743,0,0.00,2,2,0,2,44848,50000,1957,50000,0,0,0,0,0.00,0.00,0.00,0.00
2013-11-20 00:30:00,2,20909,0,0.00,2,2,0,2,11011,38043,7822,21016,0,0,0,0,0.00,0.00,0.00,0.00
2013-11-20 00:40:00,2,7876,3,0.00,2,2,0,2,4395,9516,1495,8348,0,10,5,0,0.00,0.00,0.00,0.00
2013-11-20 00:50:00,2,5469,10,0.00,2,2,0,2,3642,6902,999,5378,10,10,0,10,0.00,0.00,0.00,0.00
2013-11-20 01:00:00,2,8683,10,0.00,2,2,0,2,4861,15212,2969,8025,10,10,0,10,0.00,0.00,0.00,0.00
2013-11-20 01:10:00,2,8488,10,0.00,2,2,0,2,5480,12392,2199,7884,10,10,0,10,0.00,0.00,0.00,0.00
2013-11-20 01:20:00,2,26707,7,0.00,2,2,0,2,9607,37841,9687,29832,0,10,5,10,0.00,0.00,0.00,0.00
2013-11-20 01:30:00,2,48262,0,0.00,2,2,0,2,40372,50000,3174,50000,0,0,0,0,0.00,0.00,0.00,0.00
2013-11-20 01:40:00,2,50000,0,0.00,2,2,0,2,50000,50000,0,50000,0,0,0,0,0.00,0.00,0.00,0.00
2013-11-20 01:50:00,2,45867,0,0.00,2,2,0,2,34275,50000,5026,48072,0,0,0,0,0.00,0.00,0.00,0.00
2013-11-20 02:00:00,2,46334,0,0.00,2,2,0,2,42170,49742,2717,46874,0,0,0,0,0.00,0.00,0.00,0.00
2013-11-20 02:10:00,2,26505,22,0.00,2,2,0,2,14158,43875,9292,25074,0,78,34,0,0.00,0.00,0.00,0.00
2013-11-20 02:20:00,2,26178,76,0.01,2,2,0,2,18069,37377,5868,26149,71,78,3,78,0.00,0.05,0.02,0.00
2013-11-20 02:30:00,2,48179,55,0.00,2,2,0,2,38709,50000,3561,50000,0,78,36,78,0.00,0.00,0.00,0.00
2013-11-20 02:40:00,2,50000,0,0.00,2,2,0,2,50000,50000,0,50000,0,0,0,0,0.00,0.00,0.00,0.00
2013-11-20 02:50:00,2,49936,0,0.00,2,2,0,2,49355,50000,194,50000,0,0,0,0,0.00,0.00,0.00,0.00
2013-11-20 03:00:00,2,46512,0,0.00,2,2,0,2,30772,50000,5661,49350,0,0,0,0,0.00,0.00,0.00,0.00
2013-11-20 03:10:00,2,25083,0,0.00,2,2,0,2,17130,34953,5783,25734,0,0,0,0,0.00,0.00,0.00,0.00
2013-11-20 03:20:00,2,48115,0,0.00,2,2,0,2,39561,50000,3408,50000,0,0,0,0,0.00,0.00,0.00,0.00
2013-11-20 03:30:00,2,49603,0,0.00,2,2,0,2,47521,50000,756,50000,0,0,0,0,0.00,0.00,0.00,0.00
2013-11-20 03:40:00,2,49580,0,0.00,2,2,0,2,46680,50000,1001,50000,0,0,0,0,0.00,0.00,0.00,0.00
2013-11-20 03:50:00,2,48870,0,0.00,2,2,0,2,42510,50000,2280,50000,0,0,0,0,0.00,0.00,0.00,0.00
2013-11-20 04:00:00,2,48979,0,0.00,2,2,0,2,45484,50000,1650,50000,0,0,0,0,0.00,0.00,0.00,0.00
2013-11-20 04:10:00,2,49084,0,0.00,2,2,0,2,47325,50000,1137,50000,0,0,0,0,0.00,0.00,0.00,0.00
2013-11-20 04:20:00,2,49768,0,0.00,2,2,0,2,48285,50000,526,50000,0,0,0,0,0.00,0.00,0.00,0.00
2013-11-20 04:30:00,2,50000,0,0.00,2,2,0,2,50000,50000,0,50000,0,0,0,0,0.00,0.00,0.00,0.00
2013-11-20 04:40:00,2,49512,0,0.00,2,2,0,2,47030,50000,977,50000,0,0,0,0,0.00,0.00,0.00,0.00
2013-11-20 04:50:00,2,49807,0,0.00,2,2,0,2,48072,50000,578,50000,0,0,0,0,0.00,0.00,0.00,0.00
2013-11-20 05:00:00,2,47205,0,0.00,2,2,0,2,34961,50000,4899,49500,0,0,0,0,0.00,0.00,0.00,0.00
2013-11-20 05:10:00,2,49616,0,0.00,2,2,0,2,48036,50000,659,50000,0,0,0,0,0.00,0.00,0.00,0.00
2013-11-20 05:20:00,2,39160,0,0.00,2,2,0,2,17196,50000,10671,42926,0,0,0,0,0.00,0.00,0.00,0.00
2013-11-20 05:30:00,2,49121,0,0.00,2,2,0,2,46719,50000,1239,50000,0,0,0,0,0.00,0.00,0.00,0.00
2013-11-20 05:40:00,2,49432,0,0.00,2,2,0,2,46900,50000,1017,50000,0,0,0,0,0.00,0.00,0.00,0.00
2013-11-20 05:50:00,2,49424,0,0.00,2,2,0,2,47568,50000,905,50000,0,0,0,0,0.00,0.00,0.00,0.00
2013-11-20 06:00:00,2,44782,0,0.00,2,2,0,2,35108,50000,5996,48373,0,0,0,0,0.00,0.00,0.00,0.00
2013-11-20 06:10:00,2,49682,0,0.00,2,2,0,2,46824,50000,953,50000,0,0,0,0,0.00,0.00,0.00,0.00
2013-11-20 06:20:00,2,46977,0,0.00,2,2,0,2,39781,50000,3674,48631,0,0,0,0,0.00,0.00,0.00,0.00
2013-11-20 06:30:00,2,18894,0,0.00,2,2,0,2,2680,44502,13449,13024,0,0,0,0,0.00,0.00,0.00,0.00
2013-11-20 06:40:00,2,48700,0,0.00,2,2,0,2,42401,50000,2281,49804,0,0,0,0,0.00,0.00,0.00,0.00
2013-11-20 06:50:00,2,24046,0,0.00,2,2,0,2,5170,34396,8368,27040,0,0,0,0,0.00,0.00,0.00,0.00
2013-11-20 07:00:00,2,41350,0,0.00,2,2,0,2,29343,50000,8791,44365,0,0,0,0,0.00,0.00,0.00,0.00
2013-11-20 07:10:00,2,50000,0,0.00,2,2,0,2,50000,50000,0,50000,0,0,0,0,0.00,0.00,0.00,0.00
2013-11-20 07:20:00,2,50000,0,0.00,2,2,0,2,50000,50000,0,50000,0,0,0,0,0.00,0.00,0.00,0.00
2013-11-20 07:30:00,2,48614,0,0.00,2,2,0,2,44694,50000,1793,49602,0,0,0,0,0.00,0.00,0.00,0.00
2013-11-20 07:40:00,2,49460,0,0.00,2,2,0,2,47204,50000,852,50000,0,0,0,0,0.00,0.00,0.00,0.00
2013-11-20 07:50:00,2,47613,0,0.00,2,2,0,2,35903,50000,4209,49709,0,0,0,0,0.00,0.00,0.00,0.00
2013-11-20 08:00:00,2,48975,0,0.00,2,2,0,2,44669,50000,1605,49711,0,0,0,0,0.00,0.00,0.00,0.00
2013-11-20 08:10:00,2,48945,0,0.00,2,2,0,2,43609,50000,1915,50000,0,0,0,0,0.00,0.00,0.00,0.00
2013-11-20 08:20:00,2,49242,0,0.00,2,2,0,2,45522,50000,1471,50000,0,0,0,0,0.00,0.00,0.00,0.00
2013-11-20 08:30:00,2,49679,0,0.00,2,2,0,2,48545,50000,543,50000,0,0,0,0,0.00,0.00,0.00,0.00
2013-11-20 08:40:00,2,49708,0,0.00,2,2,0,2,48183,50000,558,50000,0,0,0,0,0.00,0.00,0.00,0.00
2013-11-20 08:50:00,2,49247,0,0.00,2,2,0,2,46384,50000,1228,50000,0,0,0,0,0.00,0.00,0.00,0.00
2013-11-20 09:00:00,2,49910,0,0.00,2,2,0,2,49522,50000,181,50000,0,0,0,0,0.00,0.00,0.00,0.00
2013-11-20 09:10:00,2,49772,0,0.00,2,2,0,2,48690,50000,423,50000,0,0,0,0,0.00,0.00,0.00,0.00
2013-11-20 09:20:00,2,47938,0,0.00,2,2,0,2,44072,50000,2197,49077,0,0,0,0,0.00,0.00,0.00,0.00
2013-11-20 09:30:00,2,49447,0,0.00,2,2,0,2,47257,50000,1078,50000,0,0,0,0,0.00,0.00,0.00,0.00
2013-11-20 09:40:00,2,45905,0,0.00,2,2,0,2,39059,50000,3088,46672,0,0,0,0,0.00,0.00,0.00,0.00
2013-11-20 09:50:00,2,47716,0,0.00,2,2,0,2,38443,50000,3465,49364,0,0,0,0,0.00,0.00,0.00,0.00
2013-11-20 10:00:00,2,48176,0,0.00,2,2,0,2,41832,50000,2418,49152,0,0,0,0,0.00,0.00,0.00,0.00
2013-11-20 10:10:00,2,46634,0,0.00,2,2,0,2,40133,50000,3201,47555,0,0,0,0,0.00,0.00,0.00,0.00
2013-11-20 10:20:00,2,46902,0,0.00,2,2,0,2,43151,50000,2741,46336,0,0,0,0,0.00,0.00,0.00,0.00
2013-11-20 10:30:00,2,48930,0,0.00,2,2,0,2,44881,50000,1517,49506,0,0,0,0,0.00,0.00,0.00,0.00
2013-11-20 10:40:00,2,44588,0,0.00,2,2,0,2,40844,50000,2838,44686,0,0,0,0,0.00,0.00,0.00,0.00
2013-11-20 10:50:00,2,45580,0,0.00,2,2,0,2,38353,50000,3507,45944,0,0,0,0,0.00,0.00,0.00,0.00
2013-11-20 11:00:00,2,45596,0,0.00,2,2,0,2,40356,50000,2523,45817,0,0,0,0,0.00,0.00,0.00,0.00
2013-11-20 11:10:00,2,47570,0,0.00,2,2,0,2,41007,50000,3393,49216,0,0,0,0,0.00,0.00,0.00,0.00
2013-11-20 11:20:00,2,46738,0,0.00,2,2,0,2,39919,50000,3203,47746,0,0,0,0,0.00,0.00,0.00,0.00
2013-11-20 11:30:00,2,43950,0,0.00,2,2,0,2,37050,50000,4232,44392,0,0,0,0,0.00,0.00,0.00,0.00
2013-11-20 11:40:00,2,47814,0,0.00,2,2,0,2,44971,50000,1772,47509,0,0,0,0,0.00,0.00,0.00,0.00
2013-11-20 11:50:00,2,47904,0,0.00,2,2,0,2,43405,50000,2364,49110,0,0,0,0,0.00,0.00,0.00,0.00
2013-11-20 12:00:00,2,44287,0,0.00,2,2,0,2,39237,50000,3219,43324,0,0,0,0,0.00,0.00,0.00,0.00
2013-11-20 12:10:00,2,46068,0,0.00,2,2,0,2,40894,49560,2871,46328,0,0,0,0,0.00,0.00,0.00,0.00
2013-11-20 12:20:00,2,48474,0,0.00,2,2,0,2,43603,50000,1937,49210,0,0,0,0,0.00,0.00,0.00,0.00
2013-11-20 12:30:00,2,46912,0,0.00,2,2,0,2,44146,50000,2080,46904,0,0,0,0,0.00,0.00,0.00,0.00
2013-11-20 12:40:00,2,43502,0,0.00,2,2,0,2,36135,49262,3958,43893,0,0,0,0,0.00,0.00,0.00,0.00
2013-11-20 12:50:00,2,45142,0,0.00,2,2,0,2,40310,49293,2735,45311,0,0,0,0,0.00,0.00,0.00,0.00
2013-11-20 13:00:00,2,43281,0,0.00,2,2,0,2,37394,47019,2569,43498,0,0,0,0,0.00,0.00,0.00,0.00
2013-11-20 13:10:00,2,45409,0,0.00,2,2,0,2,39768,50000,2782,45155,0,0,0,0,0.00,0.00,0.00,0.00
2013-11-20 13:20:00,2,47441,0,0.00,2,2,0,2,42804,50000,2351,48098,0,0,0,0,0.00,0.00,0.00,0.00
2013-11-20 13:30:00,2,49331,0,0.00,2,2,0,2,44740,50000,1564,50000,0,0,0,0,0.00,0.00,0.00,0.00
2013-11-20 13:40:00,2,47403,0,0.00,2,2,0,2,44663,50000,2047,48096,0,0,0,0,0.00,0.00,0.00,0.00
2013-11-20 13:50:00,2,43666,0,0.00,2,2,0,2,40088,48556,2787,42983,0,0,0,0,0.00,0.00,0.00,0.00
2013-11-20 14:00:00,2,43904,0,0.00,2,2,0,2,38832,47720,3010,44866,0,0,0,0,0.00,0.00,0.00,0.00
2013-11-20 14:10:00,2,44874,0,0.00,2,2,0,2,39981,49431,2728,45508,0,0,0,0,0.00,0.00,0.00,0.00
2013-11-20 14:20:00,2,46606,0,0.00,2,2,0,2,43679,48866,1564,46824,0,0,0,0,0.00,0.00,0.00,0.00
2013-11-20 14:30:00,2,48801,0,0.00,2,2,0,2,45583,50000,1222,49168,0,0,0,0,0.00,0.00,0.00,0.00
2013-11-20 14:40:00,2,47509,0,0.00,2,2,0,2,43497,50000,2243,48364,0,0,0,0,0.00,0.00,0.00,0.00
2013-11-20 14:50:00,2,47732,0,0.00,2,2,0,2,41786,50000,2424,48184,0,0,0,0,0.00,0.00,0.00,0.00
2013-11-20 15:00:00,2,44796,0,0.00,2,2,0,2,38691,50000,3950,44500,0,0,0,0,0.00,0.00,0.00,0.00
2013-11-20 15:10:00,2,48544,0,0.00,2,2,0,2,45066,50000,1881,49506,0,0,0,0,0.00,0.00,0.00,0.00
2013-11-20 15:20:00,2,47124,0,0.00,2,2,0,2,43988,50000,1827,47158,0,0,0,0,0.00,0.00,0.00,0.00
2013-11-20 15:30:00,2,48882,0,0.00,2,2,0,2,44672,50000,1667,50000,0,0,0,0,0.00,0.00,0.00,0.00
2013-11-20 15:40:00,2,48019,0,0.00,2,2,0,2,45187,50000,1808,48240,0,0,0,0,0.00,0.00,0.00,0.00
2013-11-20 15:50:00,2,49509,0,0.00,2,2,0,2,48716,50000,511,49728,0,0,0,0,0.00,0.00,0.00,0.00
2013-11-20 16:00:00,2,39774,0,0.00,2,2,0,2,30603,44768,4156,39547,0,0,0,0,0.00,0.00,0.00,0.00
2013-11-20 16:10:00,2,19190,53,0.00,2,2,0,2,16351,23531,2211,18448,0,78,35,74,0.00,0.00,0.00,0.00
2013-11-20 16:20:00,2,26787,78,0.00,2,2,0,2,21424,34826,4132,26116,78,78,0,78,0.00,0.00,0.00,0.00
2013-11-20 16:30:00,2,24806,78,0.00,2,2,0,2,18334,31173,4295,23072,78,78,0,78,0.00,0.00,0.00,0.00
2013-11-20 16:40:00,2,30516,78,0.00,2,2,0,2,20845,38085,5526,31376,78,78,0,78,0.00,0.00,0.00,0.00
2013-11-20 16:50:00,2,26169,0,0.00,2,2,0,2,21652,32055,2934,26284,0,0,0,0,0.00,0.00,0.00,0.00
2013-11-20 17:00:00,2,23938,0,0.00,2,2,0,2,18600,29223,2854,23207,0,0,0,0,0.00,0.00,0.00,0.00
2013-11-20 17:10:00,2,11820,45,0.03,2,2,0,2,8167,15485,2193,11635,0,78,37,71,0.00,0.15,0.05,0.00
2013-11-20 17:20:00,2,7666,78,0.14,2,2,0,2,6358,10663,1213,7552,77,78,0,78,0.05,0.20,0.05,0.12
2013-11-20 17:30:00,2,12197,78,0.06,2,2,0,2,8793,17346,2870,11640,78,78,0,78,0.05,0.10,0.02,0.05
2013-11-20 17:40:00,2,10022,78,0.09,2,2,0,2,6132,15318,3642,8336,78,78,0,78,0.00,0.20,0.08,0.05
2013-11-20 17:50:00,2,12464,73,0.12,2,2,0,2,7458,23941,5449,9808,71,77,3,71,0.00,0.45,0.14,0.10
2013-11-20 18:00:00,2,34585,77,0.00,2,2,0,2,25972,40390,3967,35138,71,78,3,78,0.00,0.00,0.00,0.00
2013-11-20 18:10:00,2,15876,78,0.02,2,2,0,2,7302,28275,7033,14444,78,78,0,78,0.00,0.05,0.02,0.00
2013-11-20 18:20:00,2,7730,78,0.07,2,2,0,2,7033,8765,516,7614,78,78,0,78,0.00,0.15,0.05,0.05
2013-11-20 18:30:00,2,8144,78,0.05,2,2,0,2,7684,8816,414,7948,78,78,0,78,0.05,0.05,0.00,0.05
2013-11-20 18:40:00,2,12004,78,0.06,2,2,0,2,7182,19086,4234,11011,78,78,0,78,0.00,0.15,0.06,0.05
2013-11-20 18:50:00,2,23823,78,0.00,2,2,0,2,17603,30385,3965,23094,78,78,0,78,0.00,0.00,0.00,0.00
2013-11-20 19:00:00,2,15242,78,0.00,2,2,0,2,12129,18686,1694,15132,78,78,0,78,0.00,0.00,0.00,0.00
2013-11-20 19:10:00,2,26258,78,0.00,2,2,0,2,19243,31197,3703,27088,78,78,0,78,0.00,0.00,0.00,0.00
2013-11-20 19:20:00,2,21514,31,0.00,2,2,0,2,18354,24202,1898,21558,0,78,38,0,0.00,0.00,0.00,0.00
2013-11-20 19:30:00,2,25935,0,0.00,2,2,0,2,22351,28079,1781,26454,0,0,0,0,0.00,0.00,0.00,0.00
2013-11-20 19:40:00,2,22777,0,0.00,2,2,0,2,19267,28274,3179,20803,0,0,0,0,0.00,0.00,0.00,0.00
2013-11-20 19:50:00,2,21431,0,0.00,2,2,0,2,15952,27782,4385,21060,0,0,0,0,0.00,0.00,0.00,0.00
2013-11-20 20:00:00,2,17107,0,0.00,2,2,0,2,14610,19064,1436,17336,0,0,0,0,0.00,0.00,0.00,0.00
2013-11-20 20:10:00,2,24764,0,0.00,2,2,0,2,16994,31951,5573,26185,0,0,0,0,0.00,0.00,0.00,0.00
2013-11-20 20:20:00,2,36756,0,0.00,2,2,0,2,29262,42313,4896,37659,0,0,0,0,0.00,0.00,0.00,0.00
2013-11-20 20:30:00,2,38046,0,0.00,2,2,0,2,32838,43365,3139,38292,0,0,0,0,0.00,0.00,0.00,0.00
2013-11-20 20:40:00,2,48138,0,0.00,2,2,0,2,42023,50000,2517,49561,0,0,0,0,0.00,0.00,0.00,0.00
2013-11-20 20:50:00,2,49777,0,0.00,2,2,0,2,48077,50000,574,50000,0,0,0,0,0.00,0.00,0.00,0.00
2013-11-20 21:00:00,2,49894,0,0.00,2,2,0,2,48940,50000,318,50000,0,0,0,0,0.00,0.00,0.00,0.00
2013-11-20 21:10:00,2,49125,0,0.00,2,2,0,2,43225,50000,1999,49892,0,0,0,0,0.00,0.00,0.00,0.00
2013-11-20 21:20:00,2,49416,0,0.00,2,2,0,2,47624,50000,768,49786,0,0,0,0,0.00,0.00,0.00,0.00
2013-11-20 21:30:00,2,48938,0,0.00,2,2,0,2,45918,50000,1207,49260,0,0,0,0,0.00,0.00,0.00,0.00
2013-11-20 21:40:00,2,48772,0,0.00,2,2,0,2,45121,50000,1856,50000,0,0,0,0,0.00,0.00,0.00,0.00
2013-11-20 21:50:00,2,46430,0,0.00,2,2,0,2,39259,50000,3556,47352,0,0,0,0,0.00,0.00,0.00,0.00
2013-11-20 22:00:00,2,50000,0,0.00,2,2,0,2,50000,50000,0,50000,0,0,0,0,0.00,0.00,0.00,0.00
2013-11-20 22:10:00,2,49222,0,0.00,2,2,0,2,46845,50000,1219,50000,0,0,0,0,0.00,0.00,0.00,0.00
2013-11-20 22:20:00,2,48758,0,0.00,2,2,0,2,44876,50000,1756,49857,0,0,0,0,0.00,0.00,0.00,0.00
2013-11-20 22:30:00,2,48512,0,0.00,2,2,0,2,43314,50000,2226,50000,0,0,0,0,0.00,0.00,0.00,0.00
2013-11-20 22:40:00,2,36740,7,0.00,2,2,0,2,24530,48527,7913,33820,0,71,21,0,0.00,0.00,0.00,0.00
2013-11-20 22:50:00,2,12898,75,0.08,2,2,0,2,8666,23965,4686,11288,71,78,3,78,0.00,0.25,0.07,0.08
2013-11-20 23:00:00,2,10974,72,0.09,2,2,0,2,8951,12885,1357,11258,71,77,2,71,0.05,0.20,0.06,0.05
2013-11-20 23:10:00,2,9183,72,0.12,2,2,0,2,6945,14306,2052,8648,71,77,2,71,0.05,0.40,0.11,0.05
2013-11-20 23:20:00,2,13069,77,0.01,2,2,0,2,10444,16055,1821,12816,71,78,2,78,0.00,0.05,0.02,0.00
2013-11-20 23:30:00,2,21291,62,0.00,2,2,0,2,12380,38064,9310,15741,0,78,31,78,0.00,0.00,0.00,0.00
2013-11-20 23:40:00,2,23123,0,0.00,2,2,0,2,17236,29266,3529,23620,0,0,0,0,0.00,0.00,0.00,0.00
2013-11-20 23:50:00,2,37380,0,0.00,2,2,0,2,28861,46354,5068,37518,0,0,0,0,0.00,0.00,0.00,0.00
